| time (UTC) | temp F | wind direction | speed MPH | gust MPH | rain 1hr in | rain 24hr in | rain mn in | humidity % | barometer mb |
| 20260503030017 | 52 | 0 | 5.0 | 6.0 | 0.00 | 0.00 | 0.00 | 48 | 1016.2 |
| 20260503023017 | 53 | 0 | 4.0 | 6.0 | 0.00 | 0.00 | 0.00 | 45 | 1016.2 |
| 20260503020037 | 54 | 0 | 4.0 | 6.0 | 0.00 | 0.00 | 0.00 | 44 | 1016.2 |
| 20260503013017 | 55 | 0 | 3.0 | 4.0 | 0.00 | 0.00 | 0.00 | 40 | 1015.8 |
| 20260503010017 | 56 | 0 | 4.0 | 7.0 | 0.00 | 0.00 | 0.00 | 39 | 1015.9 |
| 20260503003037 | 58 | 0 | 5.0 | 9.0 | 0.00 | 0.00 | 0.00 | 35 | 1015.9 |
| 20260503000017 | 59 | 0 | 5.0 | 12.0 | 0.00 | 0.00 | 0.00 | 33 | 1016.2 |
| 20260502233017 | 59 | 0 | 5.0 | 12.0 | 0.00 | 0.00 | 0.00 | 33 | 1016.3 |
| 20260502230017 | 59 | 0 | 5.0 | 14.0 | 0.00 | 0.00 | 0.00 | 32 | 1016.5 |
| 20260502223017 | 60 | 0 | 7.0 | 15.0 | 0.00 | 0.00 | 0.00 | 33 | 1016.6 |
| 20260502220017 | 60 | 0 | 6.0 | 16.0 | 0.00 | 0.00 | 0.00 | 32 | 1016.9 |
| 20260502213017 | 60 | 0 | 6.0 | 14.0 | 0.00 | 0.00 | 0.00 | 30 | 1017.1 |
| 20260502210017 | 61 | 0 | 5.0 | 17.0 | 0.00 | 0.00 | 0.00 | 30 | 1017.3 |
| 20260502203017 | 59 | 0 | 4.0 | 9.0 | 0.00 | 0.00 | 0.00 | 32 | 1017.7 |
| 20260502200017 | 59 | 0 | 6.0 | 16.0 | 0.00 | 0.00 | 0.00 | 29 | 1018.1 |
| 20260502193017 | 59 | 0 | 4.0 | 15.0 | 0.00 | 0.00 | 0.00 | 32 | 1018.3 |
| 20260502190017 | 59 | 0 | 2.0 | 8.0 | 0.00 | 0.00 | 0.00 | 32 | 1018.7 |
| 20260502183017 | 58 | 0 | 4.0 | 11.0 | 0.00 | 0.00 | 0.00 | 31 | 1018.8 |
| 20260502163017 | 53 | 0 | 4.0 | 10.0 | 0.00 | 0.00 | 0.00 | 43 | 1019.6 |
| 20260502123017 | 41 | 0 | 5.0 | 9.0 | 0.00 | 0.00 | 0.00 | 85 | 1018.9 |
| 20260502113017 | 40 | 0 | 4.0 | 7.0 | 0.00 | 0.00 | 0.00 | 84 | 1018.4 |
| 20260502110018 | 40 | 0 | 5.0 | 9.0 | 0.00 | 0.00 | 0.00 | 83 | 1018.2 |
| 20260502103017 | 41 | 0 | 5.0 | 9.0 | 0.00 | 0.00 | 0.00 | 82 | 1018.2 |
| 20260502070017 | 46 | 0 | 2.0 | 3.0 | 0.00 | 0.00 | 0.00 | 69 | 1017.6 |
| 20260502063017 | 46 | 0 | 2.0 | 4.0 | 0.00 | 0.00 | 0.00 | 71 | 1017.6 |
| 20260502060037 | 46 | 0 | 1.0 | 3.0 | 0.00 | 0.00 | 0.00 | 71 | 1017.8 |
| 20260502053017 | 48 | 0.0 | 1.0 | 0.00 | 0.00 | 0.00 | 66 | 1017.8 | |
| 20260502050017 | 47 | 0.0 | 2.0 | 0.00 | 0.00 | 0.00 | 66 | 1017.8 | |
| 20260502043017 | 47 | 0.0 | 3.0 | 0.00 | 0.00 | 0.00 | 66 | 1017.6 | |
| 20260502040018 | 47 | 45 | 2.0 | 3.0 | 0.00 | 0.00 | 0.00 | 69 | 1017.7 |
| 20260502033017 | 47 | 0.0 | 2.0 | 0.00 | 0.00 | 0.00 | 67 | 1017.7 |